Regional Weather Roundup
Issued by NWS Newport/Morehead, NC

Current Version | Previous Version | Graphics & Text | Print | Product List | Glossary Off
Versions: 1 2 3 4 5 6 7 8 9 10 11 12 13 14 15 16 17 18 19 20 21 22 23 24 25 26 27 28 29 30 31 32 33 34 35 36 37 38 39 40 41 42 43 44 45 46 47 48 49 50

000
ASUS42 KMHX 241613
RWRMHX
WEATHER ROUNDUP FOR EASTERN NORTH CAROLINA
NATIONAL WEATHER SERVICE NEWPORT/MOREHEAD CITY NC
1200 PM EDT SAT SEP 24 2016

NOTE: "FAIR" INDICATES FEW OR NO CLOUDS BELOW 12,000 FEET
WITH NO SIGNIFICANT WEATHER AND/OR OBSTRUCTIONS TO VISIBILITY

NCZ015>017-031-032-045>047-102-103-241700-
NORTH COAST

CITY           SKY/WX    TMP DP  RH WIND       PRES   REMARKS
EDENTON        SUNNY     82  73  74 W3        30.04F
ELIZABETH CITY SUNNY     83  69  62 N5        30.03S
KITTY HAWK     NOT AVBL
MANTEO         SUNNY     79  71  78 N5        30.03S

$$

NCZ045>047-081-094-103-104-241700-
CENTRAL COAST

CITY           SKY/WX    TMP DP  RH WIND       PRES   REMARKS
FRISCO         SUNNY     82  68  62 VRB5      30.03F

$$

NCZ095-097-098-100-101-241700-
SOUTHERN COAST

CITY           SKY/WX    TMP DP  RH WIND       PRES   REMARKS
BEAUFORT       SUNNY     84  67  56 N8        30.04S
CEDAR ISLAND   NOT AVBL
JACKSONVILLE   MOSUNNY   82  68  62 NE7       30.05S
PINEY ISLAND   SUNNY    N/A N/A N/A N8        30.04S
WILMINGTON     MOSUNNY   82  71  69 N9        30.06S


$$

NCZ011>013-027>030-043-044-078>080-089-090>093-098-241700-
COASTAL PLAIN

CITY           SKY/WX    TMP DP  RH WIND       PRES   REMARKS
AHOSKIE        SUNNY     82  68  62 CALM      30.04S
CLINTON        SUNNY     82  71  69 N5        30.08S
ELIZABETHTOWN  MOSUNNY   83  70  63 CALM      30.07S
GOLDSBORO      SUNNY     82  73  72 VRB3      30.05F
GREENVILLE     SUNNY     81  70  69 NW5       30.07S
HAVELOCK       MOSUNNY   83  69  62 N7        30.06S
KENANSVILLE    SUNNY     82  70  65 N3        30.07S
KINSTON        SUNNY     82  70  65 N5        30.07S
NEW BERN       SUNNY     82  68  62 VRB6      30.06S
RICHLANDS      MOSUNNY   82  71  69 N7        30.07S
ROCKY MOUNT    SUNNY     84  67  56 CALM      30.05F
WASHINGTON     SUNNY     80  69  69 CALM      30.05F
WHITEVILLE     MOSUNNY   81  71  71 N3        30.06S

$$

AMZ130-135-150-152-154-156-158-170-250-252-270-ANZ085-086-088-633-658-670-241700-
MARINE OBSERVATIONS

STATION/POSITION TIME  TEMP    WIND        PRES    WAVE   SWELL
                       AIR SEA DIR/SP/G            HT/PER HT/PER
                 (UTC) (F)     (DEG/KT/KT) (MB)    (FT/S) (FT/S)
CHESAPEAKE LIGHT NOT AVBL
64 E VA BEACH    1550   75 76  310/  8/  8 1016.2    4/11   3/11
DUCK             1548   78 77  310/  1/  4 1016.1
2 E DUCK         1511      77                N/A     3/10   2/11
OREGON INLET     1548   79 79   10/  7/ 10 1016.5
13E OREGON INLT  1500      77                N/A     4/11   3/11
HATTERAS CG      1548   78 81   10/  6/  9 1016.6
DIAMOND BUOY     1550   77 81   10/  8/ 12 1016.7    4/11   5/11
CAPE LOOKOUT     1600   81      10/  9/ 13 1016.9
BEAUFORT LAB     1548   80 79  360/  8/ 12 1016.7
30 SE NEW RVR IN 1508   79 82   30/ 12/ 17 1017.2
30 SE NEW RVR IN 1455      82                N/A     4/11   2/11
27 SE WRIGHTSVLE 1508   79 81   20/ 12/ 16 1017.5
5 SE WRIGHTSVLE  1508   78 81   30/  8/ 12 1018.8
225 S CAPE HAT   1550   82 83  270/  8/ 10 1016.4    4/11   5/11
41 SE CHARLESTON 1550   79 83   20/ 16/ 19 1016.6    3/11   3/11

$$




USA.gov is the U.S. government's official web portal to all federal, state and local government web resources and services.